Location: Lake Lucerne
(45.5315°N, 88.8489°W)
Time: 23:02:45
(UTC-05:00)

N. Korean satellite - Visible Passes

Search period start: 17 October 2017 00:00
Search period end: 27 October 2017 00:00
Orbit: 459 x 517 km, 97.2° (Epoch: 17 October)

Date Brightness Start Highest point End Pass type
(mag) Time Alt. Az. Time Alt. Az. Time Alt. Az.
17 Oct 10.6 06:40:30 10° ENE 06:41:13 10° E 06:41:55 10° ESE visible
17 Oct 6.4 18:49:49 10° SSE 18:53:21 79° ENE 18:56:52 10° N visible
18 Oct 7.0 18:26:46 10° SE 18:30:05 39° ENE 18:33:22 10° N visible
18 Oct 9.9 20:01:53 10° SW 20:03:47 14° W 20:05:41 10° WNW visible
19 Oct 8.9 19:37:19 10° SSW 19:40:17 25° W 19:43:16 10° NW visible
20 Oct 7.5 19:13:27 10° S 19:16:52 49° W 19:20:16 10° NNW visible
21 Oct 10.5 06:40:29 10° ENE 06:41:23 11° E 06:42:17 10° ESE visible
21 Oct 6.4 18:50:01 10° SSE 18:53:31 80° ENE 18:57:00 10° N visible
22 Oct 6.9 18:26:56 10° SE 18:30:13 39° ENE 18:33:29 10° N visible
22 Oct 9.9 20:02:08 10° WSW 20:03:56 14° W 20:05:45 10° WNW visible
23 Oct 8.9 19:37:30 10° SSW 19:40:26 25° W 19:43:21 10° NW visible
24 Oct 7.5 19:13:36 10° S 19:16:59 48° W 19:20:21 10° NNW visible
25 Oct 10.4 06:40:26 10° ENE 06:41:31 11° E 06:42:35 10° ESE visible
25 Oct 6.4 18:50:08 10° SSE 18:53:36 81° ENE 18:57:05 10° N visible
26 Oct 6.9 18:27:03 10° SE 18:30:18 39° ENE 18:33:33 10° N visible
26 Oct 9.9 20:02:18 10° WSW 20:04:01 13° W 20:05:46 10° WNW visible
